Hourly Data Report for September 23, 2017

All times are specified in Local Standard Time (LST). Add 1 hour to adjust for Daylight Saving Time where and when it is observed.

CLYDE RIVER A
NUNAVUT

70°29'09.000" N
68°31'01.000" W
26.50 m
2400804
71090
YCY

Download Data

Hourly Data (September 2017)
Hourly Data Report for September 23, 2017
Temp Definition
°C
Dew Point Temp Definition
°C
Rel Hum Definition
%
Wind Dir Definition
10's deg

Wind Spd Definition
km/h
Visibility Definition
km
Stn Press Definition
kPa
Hmdx Definition


Wind Chill Definition


Weather Definition


TIME
00:00 Legend Double Dagger 0.0 -2.4 84 31 26 16.1 100.78   -6 LegendNANA
01:00 Legend Double Dagger 0.2 -1.7 87 32 32 16.1 100.77     LegendNANA
02:00 Legend Double Dagger 0.0 -2.3 85 31 26 16.1 100.76   -6 LegendNANA
03:00 Legend Double Dagger 0.0 -2.1 86 31 28 16.1 100.75   -6 Rain
04:00 Legend Double Dagger -0.5 -1.8 91 32 28 4.0 100.76   -7 Snow
05:00 Legend Double Dagger -0.5 -2.1 89 32 32 16.1 100.75   -7 Snow
06:00 Legend Double Dagger -0.3 -2.1 88 32 26 16.1 100.76   -6 LegendNANA
07:00 Legend Double Dagger -0.3 -1.8 89 33 34 11.3 100.76   -7 Snow
08:00 Legend Double Dagger -0.3 -2.1 88 34 24 16.1 100.74   -6 LegendNANA
09:00 Legend Double Dagger -0.2 -1.8 89 33 28 14.5 100.74   -7 LegendNANA
10:00 Legend Double Dagger -0.2 -1.6 91 34 32 16.1 100.73   -7 Snow
11:00 Legend Double Dagger -0.2 -1.3 92 33 26 6.4 100.70   -6 Snow
12:00 Legend Double Dagger -0.2 -1.2 93 33 26 4.0 100.69   -6 Snow
13:00 Legend Double Dagger 0.0 -1.7 88 34 24 8.1 100.70   -6 Rain,Fog
14:00 Legend Double Dagger -0.1 -1.7 89 34 18 16.1 100.70   -5 Snow
15:00 Legend Double Dagger -0.3 -1.7 90 33 24 16.1 100.71   -6 Snow
16:00 Legend Double Dagger -0.3 -1.9 89 34 21 16.1 100.71   -6 Snow
17:00 Legend Double Dagger -0.3 -1.9 89 33 13 16.1 100.71   -4 LegendNANA
18:00 Legend Double Dagger -0.6 -1.8 92 36 9 16.1 100.69   -4 Snow
19:00 Legend Double Dagger -0.9 -2.2 91 31 11 16.1 100.68   -5 LegendNANA
20:00 Legend Double Dagger -1.3 -2.9 89 32 13 16.1 100.65   -6 Snow
21:00 Legend Double Dagger -0.9 -3.3 84 33 15 16.1 100.62   -6 LegendNANA
22:00 Legend Double Dagger -1.1 -3.9 82 33 18 16.1 100.58   -6 LegendNANA
23:00 Legend Double Dagger -1.0 -3.1 86 34 22 16.1 100.56   -7 LegendNANA

Notes on Data Quality.

Legend

  • E = Estimated
  • M = Missing
  • NA = Not Available
  • ‡ = Partner data that is not subject to review by the National Climate Archives
Date modified: